Location: Oshawa
(43.9000°N, 78.8670°W)
Time: 21:22:36
(UTC-05:00)

SPOT 5 - Visible Passes

Search period start: 10 February 2016 00:00
Search period end: 20 February 2016 00:00
Orbit: 623 x 816 km, 98.5° (Epoch: 10 February)

Date Brightness Start Highest point End Pass type
(mag) Time Alt. Az. Time Alt. Az. Time Alt. Az.
16 Feb 5.3 20:38:19 12° N 20:38:19 12° N 20:38:35 10° N visible
17 Feb 5.0 19:47:37 11° NNE 19:47:37 11° NNE 19:47:54 10° NNE visible
18 Feb 5.1 20:36:09 14° N 20:36:09 14° N 20:36:48 10° N visible
19 Feb 4.9 19:45:27 13° NNE 19:45:27 13° NNE 19:46:04 10° NNE visible
19 Feb 5.7 21:24:41 11° NNW 21:24:41 11° NNW 21:24:48 10° NNW visible
